Regional Weather Roundup
Issued by NWS

Home | Current Version | Previous Version | Graphics & Text | Print | Product List | Glossary On
Versions: 1 2 3 4 5 6 7 8 9 10 11 12 13 14 15 16 17 18 19 20 21 22 23 24 25 26 27 28 29 30 31 32 33 34 35 36 37 38 39 40 41 42 43 44 45 46 47 48 49 50
000
ASUS43 KIND 282009
RWRIN

WEATHER ROUNDUP FOR INDIANA
NATIONAL WEATHER SERVICE INDIANAPOLIS IN
400 PM EDT SAT MAR 28 2015

NOTE: "FAIR" INDICATES FEW OR NO CLOUDS BELOW 12,000 FEET WITH NO
SIGNIFICANT WEATHER AND/OR OBSTRUCTIONS TO VISIBILITY.

* - STATION DOES NOT REPORT WEATHER SUCH AS PRECIPITATION OR FOG.

+ - STATION NOT QUALITY CONTROLLED BY THE NATIONAL WEATHER SERVICE.
    USE DATA WITH CAUTION...ESPECIALLY DEWPOINT AND RELATIVE
    HUMIDITY OBSERVATIONS.

INZ001>003-010>013-019-020-282100-
NORTHWEST INDIANA

CITY           SKY/WX    TMP DP  RH WIND       PRES   REMARKS
GARY /AIRPORT/ SUNNY     32   1  27 NE7       30.34  WCI  26
KNOX *+          N/A     34 -31   5 CALM      30.30S
LA PORTE +     SUNNY     36  15  42 N8        30.31S
MICHIGAN CITY+ SUNNY     30   9  40 N6        30.32F WCI  24
MONTICELLO +   SUNNY     34  11  38 SW3       30.30F
RENSSELAER +   SUNNY     36  10  35 E3        30.31F
VALPARAISO     SUNNY     35   9  33 CALM      30.30F

$$

LMZ046-743>745-282100-
SOUTHERN LAKE MICHIGAN

STATION/POSITION TIME  TEMP WIND        PRES
                       AIR  DIR/SP/G
                 (UTC) (F)  (DEG/KT/KT) (MB)
BURNS HARBOR     2000   26   10/  6/  9 1027.4F
MICHIGAN CITY    2000   27  330/  9/ 10   N/A

$$

INZ004-005-014>016-021>024-282100-
NORTH CENTRAL INDIANA

CITY           SKY/WX    TMP DP  RH WIND       PRES   REMARKS
ELKHART        SUNNY     36   0  21 N6        30.29
GOSHEN         SUNNY     35   6  29 VRB5      30.28F WCI  31
LOGANSPORT +   SUNNY     34  10  37 SE5       30.31F WCI  30
PERU/GRISSOM   SUNNY     33   9  36 NW7       30.28F WCI  27
ROCHESTER +    SUNNY     37  10  32 SE6       30.30S
SOUTH BEND     SUNNY     36   3  25 VRB3      30.30F
WARSAW +       SUNNY     34   9  35 NW8       30.29S WCI  27

$$

INZ006>009-017-018-025>027-282100-
NORTHEAST INDIANA

CITY           SKY/WX    TMP DP  RH WIND       PRES   REMARKS
ANGOLA *+      SUNNY     34   9  35 VRB6      30.26F WCI  29
AUBURN +       SUNNY     34   9  35 W3        30.28F
FORT WAYNE     MOSUNNY   34   8  33 VRB5      30.29F WCI  30
HUNTINGTON +   SUNNY     33   6  31 NE3       30.29S

$$

INZ028-029-035-036-043>045-051>053-282100-
WEST CENTRAL INDIANA

CITY           SKY/WX    TMP DP  RH WIND       PRES   REMARKS
CRAWFORDSVL +  SUNNY     34   5  29 MISG      30.29F
GREENCASTLE +  SUNNY     36  10  35 N3        30.29F
LAFAYETTE      SUNNY     35   8  32 VRB3      30.31F
TERRE HAUTE    SUNNY     40  17  39 E3        30.30F

$$

INZ030>032-037>040-046>048-054>057-064-065-282100-
CENTRAL INDIANA

CITY           SKY/WX    TMP DP  RH WIND       PRES   REMARKS
ANDERSON       SUNNY     32  10  40 E3        30.29F
CP ATTERBURY + SUNNY     36  12  38 CALM      30.30S
COLUMBUS       SUNNY     36  10  35 CALM      30.30F
FISHERS *+     SUNNY     34  18  51 NW6       30.29F WCI  29
FRANKFORT +    SUNNY     36  15  43 NW3       30.31S
GREENWOOD *+   SUNNY     37  12  35 NW7       30.29F
INDIANAPOLIS   MOSUNNY   38  10  31 NW6       30.27F
-EAGLE CREEK   SUNNY     35  10  35 CALM      30.28F
KOKOMO *+        N/A     34  14  44 CALM      30.30S
MARION +       SUNNY     32  10  39 W8        30.29F WCI  25
MT COMFORT *+  SUNNY     36   0  21 NE5       30.29S
SHELBYVILLE    SUNNY     37  15  40 W8        30.28F
ZIONSVILLE +   SUNNY     34  11  38 NW5       30.30S WCI  30

$$

INZ033-034-041-042-049-050-058-059-282100-
EAST CENTRAL INDIANA

CITY           SKY/WX    TMP DP  RH WIND       PRES   REMARKS
MUNCIE         SUNNY     33  15  47 NW7       30.28F WCI  27

$$

INZ060-061-067>069-081>083-085>088-282100-
SOUTHWEST INDIANA

CITY           SKY/WX    TMP DP  RH WIND       PRES   REMARKS
EVANSVILLE     SUNNY     42  20  41 N8        30.31F
HUNTINGBURG *+ SUNNY     39  19  45 NE5       30.30F
WASHINGTON +   SUNNY     37  15  39 CALM      30.30F

$$

INZ062-063-066-070>080-084-089>092-282100-
SOUTH CENTRAL AND SOUTHEAST INDIANA

CITY           SKY/WX    TMP DP  RH WIND       PRES   REMARKS
BLOOMINGTON    SUNNY     40  10  29 VRB6      30.27F
NORTH VERNON + SUNNY     37  14  38 N5        30.29F
SEYMOUR +      SUNNY     39  18  41 N9        30.30F

$$



USA.gov is the U.S. government's official web portal to all federal, state and local government web resources and services.